This demonstration page uses our WeatherBlox Daily Observations layout. Learn more.

Left ArrowRight Arrow

Hourly Observations for June 13, 2018

Temp ( °F °C ) Dew Point ( °F °C ) Humidity (%) Winds ( mph kmh ) Pressure ( in mb ) Visibility ( mi km ) Precip ( " mm )
12:53 am 00:53 Clear 56 13.3 34 1.1 44 44 SW 5 7 29.85 1011 10 16 0.00 0.00
1:53 am 01:53 Clear 55 12.8 34 1.1 45 45 SW 5 7 29.83 1010 10 16 0.00 0.00
2:53 am 02:53 Clear 54 12.2 36 2.2 51 51 Calm 29.82 1010 10 16 0.00 0.00
3:53 am 03:53 Mostly Cloudy 57 13.9 35 1.7 44 44 SSW 16 26 29.81 1009 10 16 0.00 0.00
4:53 am 04:53 Mostly Cloudy 55 12.8 37 2.8 51 51 SW 10 17 29.79 1009 10 16 0.00 0.00
5:53 am 05:53 Cloudy 58 14.4 35 1.7 42 42 SSW 15 24 29.78 1008 10 16 0.00 0.00
6:53 am 06:53 Mostly Sunny 60 15.6 37 2.8 42 42 WSW 10 17 29.78 1009 10 16 0.00 0.00
7:53 am 07:53 Mostly Sunny 66 18.9 36 2.2 33 33 SW 13 20 29.78 1008 10 16 0.00 0.00
8:53 am 08:53 Sunny 68 20 33 0.6 27 27 WSW 15 24 29.78 1009 10 16 0.00 0.00
9:53 am 09:53 Sunny 71 21.7 34 1.1 26 26 WSW 12 19 29.78 1008 10 16 0.00 0.00
10:53 am 10:53 Sunny 74 23.3 34 1.1 23 23 WSW 12 19 29.75 1008 10 16 0.00 0.00
11:53 am 11:53 Sunny 75 23.9 30 -1.1 19 19 WSW 8 13 29.72 1007 10 16 0.00 0.00
12:53 pm 12:53 Sunny 79 26.1 26 -3.3 14 14 SW 17 28 29.71 1006 10 16 0.00 0.00
1:53 pm 13:53 Sunny 80 26.7 27 -2.8 14 14 WSW 16 26 29.70 1006 10 16 0.00 0.00
2:53 pm 14:53 Sunny 82 27.8 28 -2.2 14 14 W 15 24 29.68 1005 10 16 0.00 0.00
3:53 pm 15:53 Sunny 80 26.7 29 -1.7 15 15 WSW 15 24 29.67 1005 10 16 0.00 0.00
4:53 pm 16:53 Sunny 83 28.3 30 -1.1 15 15 NNW 7 11 29.64 1004 10 16 0.00 0.00
5:53 pm 17:53 Sunny 80 26.7 33 0.6 18 18 NNW 5 7 29.63 1003 10 16 0.00 0.00
6:53 pm 18:53 Sunny 78 25.6 35 1.7 21 21 NNW 5 7 29.62 1003 10 16 0.00 0.00
7:53 pm 19:53 Sunny 74 23.3 43 6.1 33 33 SE 6 9 29.62 1003 10 16 0.00 0.00
8:53 pm 20:53 Cloudy 74 23.3 35 1.7 24 24 E 15 24 29.63 1003 10 16 0.00 0.00
9:53 pm 21:53 Cloudy 72 22.2 36 2.2 27 27 NE 5 7 29.65 1004 10 16 0.00 0.00
10:53 pm 22:53 Cloudy 71 21.7 37 2.8 29 29 W 8 13 29.65 1004 10 16 0.00 0.00
11:53 pm 23:53 Partly Cloudy 70 21.1 37 2.8 30 30 S 5 7 29.65 1004 10 16 0.00 0.00

Powered by AerisWeather